Location: *
(12.9737°N, 77.5809°E)
Time: 08:14:00
(UTC+00:00)

Daily predictions for brighter satellites

Satellite Brightness Start Highest point End
(mag) Time Altitude Azimuth Time Altitude Azimuth Time Altitude Azimuth
NOAA 12 4.1 13:00:51 10° SSE 13:06:05 81° ENE 13:11:18 10° N
USA 116 4.2 13:05:55 10° N 13:09:15 53° WNW 13:12:20 10° SSW
Okean 2 3.7 13:05:47 10° NNE 13:09:42 45° E 13:13:39 10° SSE
YAOGAN 1 3.3 13:07:47 10° SE 13:11:37 32° ENE 13:15:27 10° NNE
Cosmos 2322 Rocket 2.2 13:06:24 10° NNW 13:12:01 81° ENE 13:17:37 10° SSE
GP-B 4.2 13:10:27 10° NE 13:13:55 22° E 13:17:23 10° SE
Lacrosse 4 Rocket 1.5 13:11:55 10° N 13:15:50 51° ENE 13:19:47 10° SSE
CZ-4 R/B 1.4 13:12:11 10° SSE 13:15:55 51° ENE 13:19:39 10° N
Envisat 3.0 13:12:29 10° SSE 13:17:33 74° ENE 13:22:35 10° N
Cosmos 1025 Rocket 4.3 13:14:32 10° NE 13:17:35 19° E 13:20:38 10° SE
Genesis I 4.2 13:15:54 10° N 13:19:06 25° ENE 13:22:14 10° ESE
Cosmos 1536 Rocket 4.4 13:18:05 10° NNE 13:21:46 27° E 13:25:28 10° SE
GPS 2-17 Rocket1 4.0 13:18:18 10° WNW 13:22:25 38° N 13:26:29 10° ENE
COSMOS 2455 4.2 13:20:39 10° NNE 13:24:40 18° ENE 13:27:43 13° E
ASTEX 1 4.5 13:24:45 10° NE 13:28:27 21° E 13:32:09 10° SE
Cosmos 1378 3.6 13:26:02 10° NNE 13:29:30 36° E 13:32:58 10° SSE
Cosmos 2219 Rocket 4.0 13:28:39 10° ENE 13:29:29 10° ENE 13:29:29 10° ENE
COSMOS 2428 4.3 13:33:55 10° NE 13:36:37 14° ENE 13:36:37 14° ENE
Cosmos 2322 4.5 13:33:06 10° N 13:38:04 30° ENE 13:41:59 15° SE
Cosmos 2227 Rocket 2.4 13:33:36 10° S 13:38:56 45° ESE 13:44:16 10° NNE
Cosmos 2219 3.3 13:34:18 10° SSW 13:40:02 85° WNW 13:45:47 10° NNE
Cosmos 2360 Rocket 2.1 13:36:36 10° N 13:42:12 66° ENE 13:47:49 10° SSE
Cosmos 2251 Rocket 4.1 13:38:04 10° N 13:42:55 35° ENE 13:46:58 14° SE
Cosmos 405 3.4 13:42:18 10° NNW 13:45:42 61° W 13:49:07 10° S
Meteor 1-15 Rocket 4.5 13:42:33 10° SSE 13:47:55 45° E 13:53:21 10° NNE
Cosmos 1939 Rocket 3.2 13:46:12 17° SE 13:48:42 38° ENE 13:52:17 10° N
CZ-2D R/B 3.4 13:45:38 10° SSE 13:49:18 48° ENE 13:52:57 10° N
Cosmos 2297 Rocket 2.1 13:44:06 10° S 13:49:41 64° ESE 13:55:16 10° NNE
Cosmos 2074 Rocket 3.9 13:44:11 10° N 13:50:21 69° E 13:56:31 10° S
Ariane 44LP R/B 4.4 13:43:27 10° WSW 13:51:29 23° SSW 13:54:00 13° SSE
GPS 2-15 Rocket1 3.7 13:50:55 10° SW 13:55:19 41° SSE 13:56:47 32° ESE
Lacrosse 5 rocket 3.5 13:53:29 10° WSW 13:56:18 22° NW 13:59:09 10° N
Ariane Rocket 3.0 13:54:56 10° SSE 13:59:51 55° ENE 14:04:47 10° N
GOES 2 Rocket 4.2 13:58:32 10° SW 14:04:51 75° SSE 14:09:29 28° ENE
Meteor 1-21 4.2 13:59:52 10° N 14:05:30 88° W 14:11:13 10° S
Cosmos 2056 Rocket 3.7 14:03:42 10° SSW 14:09:05 76° WNW 14:14:30 10° N
Lacrosse 5 3.0 14:06:20 10° S 14:09:15 26° SSE 14:09:15 26° SSE
IRS-1A Rocket 4.3 14:05:06 10° SSE 14:10:49 61° ENE 14:16:27 10° N
GPS 2-14 Rocket1 4.1 14:09:24 10° NW 14:12:33 24° N 14:12:52 24° N
Cosmos 2154 Rocket 3.9 14:08:09 10° N 14:14:15 61° E 14:20:23 10° SSE
GPS 2-04 Rocket1 3.4 14:11:59 10° SW 14:14:42 39° S 14:14:42 39° S
CZ-2C R/B 4.2 14:11:39 10° N 14:15:59 59° WNW 14:20:20 10° SSW
SWIFT 3.4 14:15:01 10° W 14:18:52 34° SSW 14:19:20 33° S
Ariane H10 4.3 14:06:28 10° WSW 14:22:11 30° SSW 14:24:22 24° SSE
CZ-3 Stage 3 2.8 14:19:58 10° W 14:24:18 24° NW 14:24:46 23° NNW
ADEOS Rocket 3.5 14:17:02 10° NNE 14:24:41 66° ESE 14:32:20 10° S
BREEZE-M DEB (TANK) 3.8 14:13:27 10° SW 14:26:35 84° SE 14:27:45 55° NE
Cosmos 2333 Rocket 2.7 14:24:36 10° N 14:28:57 44° NE 14:28:57 44° NE
ASC 2 Rocket 4.0 14:22:40 10° WSW 14:30:52 74° NNW 14:32:14 54° NE
CZ-3B R/B 4.2 14:21:43 10° SW 14:36:44 32° SSE 14:39:01 30° SE
ATLAS 2AS CENTAUR R/B 3.6 14:36:42 10° N 14:41:10 32° NNE 14:41:10 32° NNE
COSMOS 2455 3.9 15:04:58 10° NW 15:10:28 39° WSW 15:10:57 38° WSW
Cosmos 2219 Rocket 3.5 15:08:05 10° NNW 15:11:17 33° NW 15:11:17 33° NW
IUS-13 SRM-1 4.5 15:08:53 10° NW 16:00:22 - ESE 15:13:09 59° N
BREEZE-M DEB (TANK) 4.3 15:09:50 10° NW 15:41:44 10° SE 15:14:29 79° N
COSMOS 2428 4.2 15:15:29 10° NNW 15:18:42 31° NW 15:18:42 31° NW
ASC 2 Rocket 4.3 22:41:48 49° SSE 22:41:48 49° SSE 22:47:46 10° SE
Meteor 1-31 Rocket 4.4 22:41:21 10° NE 22:44:49 32° E 22:45:14 31° ESE
MSX 3.6 22:44:01 10° N 22:49:45 83° WNW 22:50:25 70° SSW
Meteor 1-27 Rocket 4.4 23:01:20 40° NW 23:01:20 40° NW 23:05:29 10° N
PSLV R/B 4.2 22:56:02 10° SSE 23:00:11 68° ENE 23:04:18 10° N
CZ-2C R/B 2.5 22:56:28 10° NNE 23:01:31 79° ESE 23:06:40 10° S
Atlas Centaur 2 4.4 23:04:13 13° NNW 23:09:08 27° NNE 23:15:40 10° ENE
CZ-3C R/B 2.4 23:11:39 16° NNE 23:11:39 16° NNE 23:13:04 10° NE
FUSE 4.3 23:11:26 42° NW 23:12:25 47° NNW 23:17:32 10° NE
ATLAS 3B CENTAUR R/B 3.1 23:11:09 36° WSW 23:12:48 40° SW 23:17:23 10° SSE
Cosmos 2266 Rocket 3.9 23:09:46 10° S 23:15:58 85° E 23:22:03 10° N
CZ-4B R/B 2.9 23:13:33 10° N 23:18:00 73° W 23:20:59 20° SSW
Cosmos 1500 3.0 23:20:48 10° N 23:24:32 75° W 23:28:18 10° S
Okean O Rocket 3.6 23:26:14 10° NE 23:30:10 31° E 23:34:05 10° SSE
H-2A R/B 3.2 23:28:56 14° NNW 23:31:23 36° NE 23:40:18 10° ESE
Meteor 1-11 Rocket 3.6 23:27:21 10° NNW 23:32:48 63° W 23:38:14 10° S
IUS-9 SRM-1 2.0 23:33:29 32° N 23:33:29 32° N 23:35:43 10° NE
Delta 2 Rocket 4.4 23:31:19 18° SW 23:35:30 66° SE 23:41:09 10° ENE
Ariane H10+ 2.4 23:33:41 23° WSW 23:36:07 36° SSW 23:38:52 10° ESE
MOS 1-B 4.3 23:31:04 10° NNE 23:36:52 89° ESE 23:42:41 10° SSW
Cosmos 1461 3.3 23:36:22 20° NW 23:38:49 40° WSW 23:42:55 10° S
Ariane H10 3.4 23:39:29 18° WSW 23:42:59 30° SSW 23:45:45 10° SE
Cosmos 1656 3.6 23:38:00 10° SSW 23:43:39 74° WNW 23:49:20 10° N
ARIANE 5 DEB (SYLDA) 4.4 23:43:16 18° WSW 23:46:02 30° SSW 23:49:11 10° SE
ISS -1.9 23:47:50 16° SW 23:47:50 16° SW 23:49:26 10° SSW
Abrixas rocket 4.2 23:49:42 13° NW 23:49:42 13° NW 23:51:03 10° NNW
Okean 3 3.9 23:47:23 10° S 23:51:30 64° E 23:55:37 10° NNE
Cosmos 2112 Rocket 4.3 23:46:29 10° SSW 23:51:33 46° WNW 23:56:35 10° N
CZ-3B R/B 2.6 23:50:51 10° N 23:52:10 13° NNE 23:53:56 10° ENE
Hubble Space Telescope 3.2 23:51:26 10° NNW 23:53:52 15° NNE 23:56:18 10° NE
